Time,TemperatureF,DewpointF,PressureIn,WindDirection,WindDirectionDegrees,WindSpeedMPH,WindSpeedGustMPH,Humidity,HourlyPrecipIn,Conditions,Clouds,dailyrainin,SoftwareType,DateUTC
2017-07-24 00:00:00,78.8,76.3,29.93,ESE,114,0.0,5.0,92,0.00,,,0.00,Wunderground v.1.15,2017-07-24 04:00:00,
2017-07-24 00:10:00,78.7,76.5,29.93,ESE,114,0.0,5.0,93,0.00,,,0.00,Wunderground v.1.15,2017-07-24 04:10:00,
2017-07-24 00:15:00,78.6,76.4,29.93,ESE,112,0.0,5.0,93,0.00,,,0.00,Wunderground v.1.15,2017-07-24 04:15:00,
2017-07-24 00:20:00,78.7,76.5,29.93,ESE,115,1.0,1.0,93,0.00,,,0.00,Wunderground v.1.15,2017-07-24 04:20:00,
2017-07-24 00:25:00,78.7,76.5,29.93,ESE,115,0.0,5.0,93,0.00,,,0.00,Wunderground v.1.15,2017-07-24 04:25:00,
2017-07-24 00:30:00,78.7,76.5,29.93,ESE,115,0.0,5.0,93,0.00,,,0.00,Wunderground v.1.15,2017-07-24 04:30:00,
2017-07-24 00:35:00,78.7,76.5,29.93,East,99,0.0,5.0,93,0.00,,,0.00,Wunderground v.1.15,2017-07-24 04:35:00,
2017-07-24 00:41:00,78.7,76.5,29.93,East,97,0.0,5.0,93,0.00,,,0.00,Wunderground v.1.15,2017-07-24 04:41:00,
2017-07-24 00:45:00,78.7,76.5,29.93,East,97,0.0,5.0,93,0.00,,,0.00,Wunderground v.1.15,2017-07-24 04:45:00,
2017-07-24 00:50:00,78.6,76.4,29.93,East,97,0.0,5.0,93,0.00,,,0.00,Wunderground v.1.15,2017-07-24 04:50:00,
2017-07-24 00:55:00,78.5,76.3,29.93,East,97,0.0,5.0,93,0.00,,,0.00,Wunderground v.1.15,2017-07-24 04:55:00,
2017-07-24 01:00:00,78.4,76.2,29.93,East,97,0.0,5.0,93,0.00,,,0.00,Wunderground v.1.15,2017-07-24 05:00:00,
2017-07-24 01:05:00,78.4,76.2,29.93,East,97,0.0,5.0,93,0.00,,,0.00,Wunderground v.1.15,2017-07-24 05:05:00,
2017-07-24 01:15:00,78.3,76.4,29.93,East,97,0.0,5.0,94,0.00,,,0.00,Wunderground v.1.15,2017-07-24 05:15:00,
2017-07-24 01:20:00,78.3,76.4,29.93,East,97,0.0,5.0,94,0.00,,,0.00,Wunderground v.1.15,2017-07-24 05:20:00,
2017-07-24 01:25:00,78.2,76.3,29.92,East,97,0.0,5.0,94,0.00,,,0.00,Wunderground v.1.15,2017-07-24 05:25:00,
2017-07-24 01:30:00,78.1,76.2,29.92,East,97,0.0,5.0,94,0.00,,,0.00,Wunderground v.1.15,2017-07-24 05:30:00,
2017-07-24 01:35:00,78.0,76.1,29.92,East,97,0.0,5.0,94,0.00,,,0.00,Wunderground v.1.15,2017-07-24 05:35:00,
2017-07-24 01:45:00,77.8,75.9,29.92,East,97,0.0,5.0,94,0.00,,,0.00,Wunderground v.1.15,2017-07-24 05:45:00,
2017-07-24 01:50:00,77.7,75.8,29.92,East,97,0.0,5.0,94,0.00,,,0.00,Wunderground v.1.15,2017-07-24 05:50:00,
2017-07-24 01:55:00,77.6,75.7,29.92,East,97,0.0,5.0,94,0.00,,,0.00,Wunderground v.1.15,2017-07-24 05:55:00,
2017-07-24 02:00:00,77.6,75.7,29.92,East,97,0.0,5.0,94,0.00,,,0.00,Wunderground v.1.15,2017-07-24 06:00:00,
2017-07-24 02:05:00,77.6,76.1,29.92,East,97,0.0,5.0,95,0.00,,,0.00,Wunderground v.1.15,2017-07-24 06:05:00,
2017-07-24 02:15:00,77.5,76.0,29.91,ESE,105,0.0,5.0,95,0.00,,,0.00,Wunderground v.1.15,2017-07-24 06:15:00,
2017-07-24 02:20:00,77.6,76.1,29.91,ESE,105,0.0,5.0,95,0.00,,,0.00,Wunderground v.1.15,2017-07-24 06:20:00,
2017-07-24 02:25:00,77.6,76.1,29.91,ESE,115,0.0,5.0,95,0.00,,,0.00,Wunderground v.1.15,2017-07-24 06:25:00,
2017-07-24 02:30:00,77.7,76.2,29.91,ESE,121,0.0,5.0,95,0.00,,,0.00,Wunderground v.1.15,2017-07-24 06:30:00,
2017-07-24 02:35:00,77.8,76.3,29.91,ESE,105,0.0,5.0,95,0.00,,,0.00,Wunderground v.1.15,2017-07-24 06:35:00,
2017-07-24 02:40:00,77.8,76.3,29.91,ESE,105,0.0,5.0,95,0.00,,,0.00,Wunderground v.1.15,2017-07-24 06:40:00,